DMSP 5D-2 F13 DEB, 42319

Orbit data source: Space-Track

DMSP 5D-2 F13 DEB, 42319 is space debris in SSO originally from a launch on Fri, 24 Mar 1995 UTC launched from the Air Force Western Test Range (AFWTR). Debris objects in space refer to the collection of defunct objects orbiting the Earth. Examples of debris include non-operational satellites, rocket bodies, and fragments generated from explosions, collisions, or faulty payload assembly.

Loading next visibility...
Identifier
42319, 1995-015JM
Orbit
SSO
Country
Flag of USUS
Related business
Manufacturer
Unknown
Mission
Spacecraft
Bus & Motor
Unknown
Mass
Unknown
Launch date (UTC)
1995-03-24 (31 years ago)
Launch vehicle
Unknown
Launch site
Air Force Western Test Range (AFWTR)
Object type
Payload
Rocket body
Debris
Shape & HBR
Unknown shape, 0.1 m
Radar Cross Section
Small (<0.1 m²)

Expand to show TLE details & history
Last TLE update: 1 day ago

TLE from 1 day ago
0 DMSP 5D-2 F13 DEB
1 42319U 95015JM  26126.57968681  .00006230  00000-0  20772-2 0  9997
2 42319  98.8725 171.9534 0026626  89.2895 271.1341 14.37709752572337
Epoch: 2026-05-06T13:54Z
TLE epoch observation values (Epoch: 2026-05-06T13:54:44.940Z)
Latitude
-0.00006°
Longitude
98.82801°
Altitude
768.683 km
Speed
7.47 km/s
True Right ascension
11h 27m 48s
True Declination
0° 00' 00"
Sunlit
Object was in full shadow at epoch
Visualization orbit readout
Latitude
Unknown
Longitude
Unknown
Altitude
Unknown
Speed
Unknown
Apparent Right ascension
Unknown
Apparent Declination
Unknown
Sunlit
N/A
Visualization observer readout
Local Sidereal Time
23:47:13
Azimuth
Unknown
Elevation
Unknown
Doppler factor
Unknown
Orbital elements
Apogee altitude
782.233 km
Perigee altitude
744.204 km
Semi-major axis
7,141.355 km
Eccentricity
0.00266
Inclination
98.8725°
RAAN
171.9534°
Arg. of periapsis
89.2895°
True anomaly
270.82903°
Mean anomaly
271.1341°
Eccentric anomaly
270.98157°
Mean motion
3.59643 °/min
Orbital period
100.1 mins
BSTAR
0.0020772

Documentation

Showing up to 5 results
|